Weather History for KPHF - November, 2012

Change the Weather History Date:

Thursday, November 29, 2012

  Actual Average Record
Temperature  
Mean Temperature 40 °F -  
Max Temperature 52 °F 58 °F 75 °F (1973)
Min Temperature 28 °F 38 °F 21 °F (2002)
Degree Days  
Heating Degree Days 25    
Moisture  
Dew Point 27 °F    
Average Humidity 74    
Maximum Humidity 93    
Minimum Humidity 39    
Precipitation  
Precipitation 0.00 in - - ()
Sea Level Pressure  
Sea Level Pressure 30.42 in    
Wind  
Wind Speed 1 mph (ENE)    
Max Wind Speed 9 mph    
Max Gust Speed -    
Visibility 6 miles    
Events Fog , Rain    
Averages and records for this station are not official NWS values.
T = Trace of Precipitation, MM = Missing Value Source: NWS Daily Summary

Daily Weather History Graph

Daily Weather History Graph

Search for Another Location

Airport or City:

Trip Planner

Search our weather history database for the weather conditions in past years. The results will help you decide how hot, cold, wet, or windy it might be!

Date:

Astronomy

Nov. 29, 2012 Rise Set
Actual Time 6:59 AM EST 4:49 PM EST
Civil Twilight 6:30 AM EST 5:17 PM EST
Nautical Twilight 5:58 AM EST 5:49 PM EST
Astronomical Twilight 5:27 AM EST 6:21 PM EST
Moon 5:50 PM EST (11/29) 7:44 AM EST (11/29)
Length of Visible Light 10h 46m
Length of Day
9h 49m
Full, 99% of the Moon is Illuminated
Nov 29
Full
Dec 6
Last Quarter
Dec 13
New
Dec 20
First Quarter
Dec 28
Full

Hourly Weather History & Observations

Time (EST) Temp. Windchill Dew Point Humidity Pressure Visibility Wind Dir Wind Speed Gust Speed Precip Events Conditions
12:54 AM 30.9 °F - 27.0 °F 85% 30.39 in 4.0 mi Calm Calm - N/A   Clear
1:54 AM 30.0 °F - 25.0 °F 82% 30.40 in 5.0 mi Calm Calm - N/A   Haze
2:54 AM 30.9 °F - 26.1 °F 82% 30.41 in 6.0 mi Calm Calm - N/A   Haze
3:52 AM 28.4 °F - 26.6 °F 93% 30.41 in 2.0 mi Calm Calm - N/A   Clear
3:54 AM 28.9 °F - 25.0 °F 85% 30.42 in 2.0 mi Calm Calm - N/A   Clear
4:23 AM 28.4 °F - 24.8 °F 86% 30.41 in 0.8 mi Calm Calm - N/A   Haze
4:33 AM 28.4 °F - 24.8 °F 86% 30.40 in 0.2 mi Calm Calm - N/A Fog Light Freezing Fog
4:45 AM 28.4 °F - 24.8 °F 86% 30.41 in 0.8 mi Calm Calm - N/A   Haze
4:51 AM 28.4 °F - 24.8 °F 86% 30.41 in 2.0 mi Calm Calm - N/A   Clear
4:52 AM 28.0 °F - 24.1 °F 85% 30.41 in 2.5 mi Calm Calm - N/A   Clear
5:00 AM 28.4 °F - 24.8 °F 86% 30.41 in 0.8 mi Calm Calm - N/A   Haze
5:22 AM 28.4 °F - 24.8 °F 86% 30.41 in 0.2 mi Calm Calm - N/A   Haze
5:54 AM 28.9 °F - 26.1 °F 89% 30.42 in 6.0 mi Calm Calm - N/A   Clear
6:54 AM 30.0 °F - 25.0 °F 82% 30.45 in 10.0 mi Calm Calm - N/A   Clear
7:54 AM 30.9 °F - 28.0 °F 89% 30.46 in 10.0 mi Calm Calm - N/A   Clear
8:54 AM 42.1 °F - 35.1 °F 76% 30.48 in 9.0 mi Calm Calm - 0.00 in Rain Light Rain
9:54 AM 46.9 °F - 27.0 °F 46% 30.49 in 10.0 mi ENE 9.2 mph - 0.00 in   Clear
10:54 AM 48.9 °F - 26.1 °F 41% 30.48 in 10.0 mi NE 5.8 mph - N/A   Clear
11:54 AM 50.0 °F - 26.1 °F 39% 30.47 in 10.0 mi Variable 3.5 mph - N/A   Clear
12:54 PM 50.0 °F - 28.0 °F 43% 30.45 in 10.0 mi East 3.5 mph - N/A   Clear
1:54 PM 51.1 °F - 30.0 °F 44% 30.41 in 10.0 mi East 5.8 mph - N/A   Clear
2:54 PM 52.0 °F - 28.0 °F 40% 30.39 in 10.0 mi South 5.8 mph - N/A   Clear
3:54 PM 48.9 °F - 30.9 °F 50% 30.39 in 10.0 mi ENE 5.8 mph - N/A   Clear
4:54 PM 43.0 °F 41.3 °F 28.9 °F 58% 30.39 in 10.0 mi East 3.5 mph - N/A   Clear
5:54 PM 37.9 °F 35.5 °F 28.9 °F 70% 30.40 in 10.0 mi NE 3.5 mph - N/A   Clear
6:54 PM 37.0 °F - 30.0 °F 76% 30.40 in 9.0 mi Calm Calm - N/A   Clear
7:54 PM 34.0 °F - 28.9 °F 82% 30.41 in 7.0 mi Calm Calm - N/A   Clear
8:54 PM 33.1 °F - 28.0 °F 82% 30.41 in 7.0 mi Calm Calm - N/A   Clear
9:54 PM 35.1 °F - 28.0 °F 76% 30.41 in 6.0 mi Calm Calm - N/A   Haze
10:54 PM 33.1 °F - 28.0 °F 82% 30.40 in 5.0 mi Calm Calm - N/A   Haze
11:41 PM 33.8 °F - 28.4 °F 81% 30.40 in 1.5 mi Calm Calm - N/A   Clear
11:50 PM 32.0 °F - 28.4 °F 87% 30.40 in 0.2 mi Calm Calm - N/A Fog Fog
11:54 PM 33.1 °F - 28.9 °F 85% 30.40 in 0.5 mi Calm Calm - N/A Fog Fog